RJFK

Kagoshima

Airport
ICAO code
RJFK
IATA Code
KOJ
Summary
ICAO Region
APAC
ICAO Territory
Location

Kirishima, Kagoshima Prefecture

Serving
Kagoshima
Elevation
892 ft
Coordinates
31° 48' 12" N , 130° 43' 10" E
KCC
Metar
RJFK 270822Z 19006KT 160V250 3500 -SHRA BCFG BR FEW001 BKN003 BKN008 23/22 Q1005 RMK 2ST001 6ST003 7ST008 A2970 FG ALL QUAD

Kagoshima Airport is located in Kirishima, Kagoshima Prefecture, Japan, 29.6 km northeast of Kagoshima City.

Climatology

Humid Sub-tropical climate (Köppen climate classification Cwa) - Hot humid summers and cooler winter. Significant precipitation in all seasons but drier in the winter.

Runways

Designator Length Width Surface Rops
16/34 2999 46 ASP Yes/Yes

Airport map

Aerial View

SKYbrary Partners:

Safety knowledge contributed by: